This is the latest recevied weather packets stored in our database for station/object SP9MUF-14. If no packets are shown the sender has not sent any weather packets the latest 10 day(s).
| Time | Temp. | Humidity | Pressure | Rain* | Wind** | Luminosity | Snow |
|---|---|---|---|---|---|---|---|
| 1788607896 | 20.56° C | 56% | 1016 hPa | 0 mm | - | 95 W/m² | - |
| 1788607594 | 20.56° C | 53% | 1015.9 hPa | 0 mm | - | 112 W/m² | - |
| 1788607292 | 20.56° C | 53% | 1016 hPa | 0 mm | - | 128 W/m² | - |
| 1788606991 | 20.56° C | 54% | 1016.2 hPa | 0 mm | - | 618 W/m² | - |
| 1788606730 | 20° C | 58% | 1016.1 hPa | 0 mm | - | 186 W/m² | - |
| 1788606687 | 20° C | 58% | 1016.1 hPa | 0 mm | - | 186 W/m² | - |
| 1788606385 | 20.56° C | 55% | 1016.1 hPa | 0 mm | - | 251 W/m² | - |
| 1788605177 | 20° C | 58% | 1016.3 hPa | 0 mm | - | 140 W/m² | - |
| 1788604875 | 20° C | 58% | 1016.2 hPa | 0 mm | - | 603 W/m² | - |
| 1788604573 | 20° C | 59% | 1016.4 hPa | 0 mm | - | 666 W/m² | - |
| 1788603968 | 20° C | 60% | 1016.2 hPa | 0 mm | - | 671 W/m² | - |
| 1788603666 | 20° C | 60% | 1016.2 hPa | 0 mm | - | 738 W/m² | - |
| 1788603364 | 20° C | 61% | 1016.3 hPa | 0 mm | - | 230 W/m² | - |
| 1788603062 | 18.89° C | 61% | 1016.2 hPa | 0 mm | - | 213 W/m² | - |
| 1788602760 | 18.89° C | 62% | 1016.2 hPa | 0 mm | - | 462 W/m² | - |
| 1788602458 | 18.89° C | 62% | 1016.3 hPa | 0 mm | - | 155 W/m² | - |
| 1788602156 | 18.89° C | 62% | 1016.3 hPa | 0 mm | - | 172 W/m² | - |
| 1788601854 | 18.89° C | 64% | 1016.3 hPa | 0 mm | - | 720 W/m² | - |
| 1788601553 | 17.78° C | 66% | 1016.3 hPa | 0 mm | - | 119 W/m² | - |
| 1788601251 | 17.78° C | 66% | 1016.5 hPa | 0 mm | - | 144 W/m² | - |
| 1788600947 | 18.89° C | 65% | 1016.3 hPa | 0 mm | - | 183 W/m² | - |
| 1788600645 | 18.89° C | 66% | 1016.4 hPa | 0 mm | - | 173 W/m² | - |
| 1788600343 | 18.89° C | 68% | 1016.3 hPa | 0 mm | - | 286 W/m² | - |
| 1788599771 | 17.78° C | 71% | 1016.4 hPa | 0 mm | - | 576 W/m² | - |
| 1788599437 | 17.78° C | 73% | 1016.5 hPa | 0 mm | - | 613 W/m² | - |
* Rain latest hour (hover to see other rain measurements)
** Current wind speed in m/s (hover to see current wind gust speed)